Location: *
(45.4590°N, 16.3650°E)
Time: 10:31:26
(UTC+00:00)

Cosmos 1812 Rocket - Pass Details

Date: 17 January 2020
Orbit: 606 x 631 km, 82.5° (Epoch: 18 February)

Event Time Altitude Azimuth Distance (km) Brightness Sun altitude
Rises 17:04:50 0° 353° (N) 2,923 6.9 -14.7°
Reaches altitude 10° 17:07:05 10° 356° (N) 2,015 6.1 -15.1°
Maximum altitude 17:11:32 68° 80° (E) 681 3.5 -15.8°
Drops below altitude 10° 17:15:58 10° 164° (SSE) 2,006 6.1 -16.6°
Sets 17:18:13 0° 166° (SSE) 2,910 7.0 -16.9°
